Regional Weather Roundup
Issued by NWS

Home | Current Version | Previous Version | Graphics & Text | Print | Product List | Glossary On
Versions: 1 2 3 4 5 6 7 8 9 10 11 12 13 14 15 16 17 18 19 20 21 22 23 24 25 26 27 28 29 30 31 32 33 34 35 36 37 38 39 40 41 42 43 44 45 46 47 48 49 50
000
ASUS43 KMPX 260610
RWRMN
WEATHER ROUNDUP FOR MINNESOTA
NATIONAL WEATHER SERVICE TWIN CITIES/CHANHASSEN MN
100 AM CDT WED APR 26 2017


NOTE: "FAIR" INDICATES FEW OR NO CLOUDS BELOW 12,000 FEET WITH NO
SIGNIFICANT WEATHER AND/OR OBSTRUCTIONS TO VISIBILITY. N/A MEANS
CURRENT SKY AND/OR WEATHER CONDITIONS ARE NOT AVAILABLE.

MNZ060>063-068>070-260700-
   Twin Cities Metro

CITY           SKY/WX    TMP DP  RH WIND       PRES   REMARKS
TWIN CITIES    CLOUDY    47  44  90 NE16G23   29.52S
6HR MIN TEMP:  47; 6HR MAX TEMP:  55; 6HR PCP:  0.29;

ST PAUL        CLOUDY    49  48  97 NE10      29.54S
CRYSTAL        CLOUDY    44  40  85 NE14G24   29.53F
BLAINE         LGT RAIN  45  45 100 NE12      29.54F
LAKEVILLE      CLOUDY    52  52 100 N12       29.48F
EDEN PRAIRIE   CLOUDY    47  44  90 N15G22    29.50F
6HR MIN TEMP:  47; 6HR MAX TEMP:  55; 6HR PCP:  0.24;

SOUTH ST PAUL  CLOUDY    49  49  99 N10       29.52S
LAKE ELMO      DRIZZLE   46  45  93 NE10      29.54S
$$
MNZ001>005-007-008-013>017-022>024-027-028-260700-
   Northwest Minnesota

CITY           SKY/WX    TMP DP  RH WIND       PRES   REMARKS
BEMIDJI        MIX PCPN  29  27  92 NE9       29.78S WCI  21
HALLOCK        CLOUDY    32  25  74 NE16G22   29.93F WCI  21
ROSEAU         CLOUDY    30  25  80 NE20G26   29.91F WCI  18
WARROAD        CLOUDY    30  25  80 NE21G29   29.92F WCI  17
THIEF RVR FALL CLOUDY    30  25  81 NE18G32   29.85F WCI  18
CROOKSTON      CLOUDY    32  27  80 NE16      29.85F WCI  21
FOSSTON        CLOUDY    28  27  93 N14G20    29.80F WCI  17
DETROIT LAKES  MIX PCPN  32  32 100 NE8       29.74F WCI  25
MOORHEAD       RAIN      32  28  86 N17G23    29.77F WCI  21
PARK RAPIDS    FRZ RAIN  32  27  81 NE8G17    29.72F WCI  25
MAHNOMEN       MIX PCPN  31  29  91 NE12      29.76F WCI  22
$$
MNZ006-009>011-018-025>026-260700-
   North Central Minnesota

CITY           SKY/WX    TMP DP  RH WIND       PRES   REMARKS
BAUDETTE       CLOUDY    28  20  71 NE15G26   29.89F WCI  16
FLAG ISLAND    CLOUDY    28  23  80 NE18G25   29.94F WCI  16
INTL FALLS     CLOUDY    26  21  81 NE17G25   29.87F WCI  13
6HR MIN TEMP:  26; 6HR MAX TEMP:  30;

WASKISH        CLOUDY    28  25  86 NE13G21   29.84S WCI  18
BIG FORK       LGT SNOW  28  25  86 NE8       29.80F WCI  20
LONGVILLE      MIX PCPN  30  28  93 N9G17     29.73F WCI  22
GRAND RAPIDS   FLURRIES  29  27  92 N9G16     29.76F WCI  20
CRANE LAKE     LGT SNOW  25  21  86 NE3       29.88S
ORR            RAIN      25  21  86 NE5       29.81S WCI  19
COOK           LGT SNOW  27  25  93 NE10      29.83R WCI  17
WALKER         MIX PCPN  29  27  91 NE10G17   29.75F WCI  20
$$
MNZ012-019>021-037-260700-
   Northeast Minnesota

CITY           SKY/WX    TMP DP  RH WIND       PRES   REMARKS
DULUTH         LGT RAIN  36  34  92 E15       29.70F
6HR MIN TEMP:  36; 6HR MAX TEMP:  42; 6HR PCP:  0.31;

ELY            LGT SNOW  25  25 100 NE7G17    29.81S WCI  17
HIBBING        FRZ RAIN  29  28  96 N9G20     29.75F FOG     WCI  20
EVELETH        MIX PCPN  31  28  89 NE10      29.77F WCI  22
DULUTH HARBOR  LGT RAIN  37  36  93 NE26      29.73F
TWO HARBORS    DRIZZLE   37  32  81 NE8G16    29.71F
SILVER BAY     LGT RAIN  34  32  93 N8        29.74F WCI  27
GRAND MARAIS     N/A     32  28  85 N9G23     29.81S WCI  24
G MARAIS ARPRT LGT SNOW  25  19  80 N5        29.78S WCI  19
$$
MNZ029>031-032-039>041-046>048-054>057-064-260700-
   West Central Minnesota

CITY           SKY/WX    TMP DP  RH WIND       PRES   REMARKS
FERGUS FALLS   LGT RAIN  34  34 100 NE12G20   29.71F WCI  25
WHEATON        MIX PCPN  34  32  93 N13G20    29.72F WCI  25
MORRIS         DRIZZLE   36  34  93 N21       29.65F
ALEXANDRIA     LGT RAIN  34  33  96 NE15      29.66S WCI  24
ELBOW LAKE     LGT RAIN  35  33  95 E16G22    29.69F WCI  25
WADENA         LGT SNOW  30  30 100 NE13      29.69S WCI  20
GLENWOOD       LGT RAIN  36  34  93 N23       29.63F
APPLETON       LGT RAIN  39  36  87 N15       29.65S
BENSON         DRIZZLE   39  36  87 NE16G23   29.65F
ORTONVILLE     LGT RAIN  36  32  87 N20G25    29.67F
MADISON        LGT RAIN  39  39 100 N18       29.65F
WILLMAR        RAIN      41  41 100 N16       29.60F
$$
MNZ033>034-036-042>043-049>051-058-059-260700-
   Central Minnesota

CITY           SKY/WX    TMP DP  RH WIND       PRES   REMARKS
ST CLOUD       LGT RAIN  42  41  96 N14G20    29.59R FOG
6HR MIN TEMP:  42; 6HR MAX TEMP:  49; 6HR PCP:  0.26;

SAUK CENTRE    RAIN      35  34  94 N13G18    29.63S WCI  27
PAYNESVILLE    RAIN      39  39 100 N14G25    29.60S
AITKIN         MIX PCPN  34  30  86 N13       29.68F WCI  25
PINE RIVER     MIX PCPN  30  30 100 N14G23    29.75F WCI  20
BRAINERD       LGT RAIN  32  31  96 NE16G28   29.68F WCI  21
STAPLES        MIX PCPN  30  30 100 CALM      29.69S
LONG PRAIRIE   MIX PCPN  32  32 100 N16G28    29.64F WCI  21
LITTLE FALLS   MIX PCPN  34  32  93 N9        29.64F WCI  26
LITCHFIELD     LGT RAIN  46  45  93 NE16G22   29.56F
BUFFALO        DRIZZLE   45  42  91 N14G20    29.56S
MAPLE LAKE     RAIN      46  44  95 NE12G20   29.57S
HUTCHINSON     DRIZZLE   47  46  97 N12G20    29.54S
$$
MNZ037-044-045-052-053-260700-
   East Central Minnesota

CITY           SKY/WX    TMP DP  RH WIND       PRES   REMARKS
PRINCETON      DRIZZLE   45  43  93 NE15G22   29.59R
MORA           DRIZZLE   37  36  93 NE8       29.63S
CAMBRIDGE      RAIN      43  39  87 N13G23    29.57S
RUSH CITY      LGT RAIN  39  37  90 NE15G23   29.60F
MOOSE LAKE     LGT RAIN  36  34  93 NE16G23   29.65S
HINCKLEY       LGT RAIN  39  37  93 NE14G23   29.63R
CLOQUET        LGT RAIN  36  34  93 NE14G23   29.68F
MCGREGOR       CLOUDY    32  32 100 N13G18    29.68F WCI  22
$$
MNZ071>073-080-081-089-090-097-098-260700-
   Southwest Minnesota

CITY           SKY/WX    TMP DP  RH WIND       PRES   REMARKS
MONTEVIDEO     DRIZZLE   39  39 100 N17       29.62F
GRANITE FALLS  RAIN      41  39  93 NW16G22   29.62S
CANBY          LGT RAIN  37  36  96 NW13G18   29.66S
MARSHALL       LGT RAIN  37  36  96 N20       29.61F
REDWOOD FALLS  LGT RAIN  42  40  92 NW12      29.56S FOG
OLIVIA         RAIN      43  41  93 N15G21    29.56F
PIPESTONE      DRIZZLE   37  32  81 N15G21    29.60F
WINDOM         LGT RAIN  39  39 100 NW24      29.54S
WORTHINGTON    LGT RAIN  38  37  97 N20       29.57S
JACKSON        LGT RAIN  39  39 100 NW18      29.53F
TRACY          LGT RAIN  38  38  99 NW18G24   29.60S
SLAYTON        CLOUDY    36  35  98 NW16G24   29.58F
$$
MNZ065>067-074>077-082>085-091>093-260700-
   South Central Minnesota

CITY           SKY/WX    TMP DP  RH WIND       PRES   REMARKS
MANKATO        LGT RAIN  51  51 100 NW6       29.49S VSB 1/2
NEW ULM        LGT RAIN  46  46 100 N7        29.52S
ST JAMES       LGT RAIN  43  43 100 NW17G23   29.52F
FAIRMONT       LGT RAIN  43  42  97 NW21      29.50F
GLENCOE        LGT RAIN  47  47 100 N10G18    29.51F
FARIBAULT      CLOUDY    54  54 100 NE8       29.47F
OWATONNA       RAIN      54  52  94 E8        29.46F
WASECA         CLOUDY    52  50  93 NE6       29.47F FOG
ALBERT LEA     LGT RAIN  52  52 100 E7        29.45F
$$
MNZ078>079-086>088-094>096-260700-
   Southeast Minnesota

CITY           SKY/WX    TMP DP  RH WIND       PRES   REMARKS
ROCHESTER      LGT RAIN  53  52  96 NE10      29.46F
6HR MIN TEMP:  53; 6HR MAX TEMP:  54; 6HR PCP:  0.13;

RED WING       RAIN      55  52  88 E6        29.48F
STANTON        DRIZZLE   55  53  93 NE8       29.47F
DODGE CENTER   LGT RAIN  52  52 100 NE8       29.47F
WINONA         DRIZZLE   55  52  88 NE3       29.48F
AUSTIN         RAIN      54  52  94 NE7       29.45F
PRESTON        CLOUDY    53  50  90 NE9       29.45F
$$
ABBREVIATIONS USED IN REMARKS
   TC - TEMPERATURES IN CELSIUS
  WCI - WIND CHILL INDEX
   HX - HEAT INDEX
  VSB - VISIBILITY
$$



USA.gov is the U.S. government's official web portal to all federal, state and local government web resources and services.